TimeEST,TemperatureF,Dew PointF,Humidity,Sea Level PressureIn,VisibilityMPH,Wind Direction,Wind SpeedMPH,Gust SpeedMPH,PrecipitationIn,Events,Conditions,WindDirDegrees,DateUTC
12:20 AM,21.2,12.2,68,29.76,10.0,SW,9.2,-,N/A,,Overcast,230,2012-12-31 05:20:00
12:53 AM,23.0,14.0,68,29.80,10.0,WSW,9.2,-,N/A,,Overcast,240,2012-12-31 05:53:00
1:53 AM,24.1,16.0,71,29.78,10.0,West,9.2,18.4,N/A,,Overcast,260,2012-12-31 06:53:00
2:50 AM,24.8,19.4,80,29.72,7.0,West,23.0,29.9,N/A,,Overcast,270,2012-12-31 07:50:00
2:53 AM,25.0,19.9,81,29.78,7.0,West,19.6,29.9,N/A,,Overcast,280,2012-12-31 07:53:00
3:53 AM,25.0,19.9,81,29.81,8.0,WNW,20.7,28.8,N/A,,Overcast,290,2012-12-31 08:53:00
4:35 AM,24.8,19.4,80,29.76,9.0,WNW,20.7,27.6,0.00,,Overcast,300,2012-12-31 09:35:00
4:53 AM,24.1,18.0,77,29.83,10.0,WNW,20.7,27.6,0.00,,Overcast,300,2012-12-31 09:53:00
5:53 AM,21.9,17.1,82,29.87,7.0,NW,21.9,27.6,0.00,Snow,Light Snow,310,2012-12-31 10:53:00
6:53 AM,19.9,14.0,78,29.88,3.0,NW,20.7,25.3,0.00,Snow,Light Snow,320,2012-12-31 11:53:00
7:53 AM,19.0,12.9,77,29.91,3.0,NW,21.9,27.6,0.00,Snow,Light Snow,310,2012-12-31 12:53:00
8:13 AM,17.6,10.4,73,29.86,2.5,WNW,19.6,-,0.00,Snow,Light Snow,300,2012-12-31 13:13:00
8:21 AM,17.6,10.4,73,29.86,4.0,NW,23.0,28.8,0.00,Snow,Light Snow,310,2012-12-31 13:21:00
8:44 AM,17.6,10.4,73,29.87,2.0,WNW,16.1,29.9,0.00,Snow,Light Snow,300,2012-12-31 13:44:00
8:53 AM,17.1,10.9,77,29.94,3.0,WNW,15.0,24.2,0.00,Snow,Light Snow,290,2012-12-31 13:53:00
9:00 AM,17.6,12.2,79,29.87,1.8,WNW,21.9,28.8,0.00,Snow,Light Snow,300,2012-12-31 14:00:00
9:11 AM,15.8,12.2,86,29.88,0.8,WNW,18.4,24.2,0.00,Snow,Light Snow,300,2012-12-31 14:11:00
9:20 AM,15.8,12.2,86,29.89,1.0,WNW,17.3,-,N/A,Snow,Light Snow,290,2012-12-31 14:20:00
9:40 AM,15.8,10.4,79,29.90,3.0,WNW,17.3,23.0,0.00,Snow,Light Snow,300,2012-12-31 14:40:00
9:45 AM,15.8,10.4,79,29.90,1.8,WNW,20.7,25.3,0.00,Snow,Light Snow,300,2012-12-31 14:45:00
9:53 AM,16.0,10.9,81,29.97,0.8,NW,18.4,26.5,0.00,Snow,Light Snow,320,2012-12-31 14:53:00
10:02 AM,15.8,10.4,79,29.91,1.5,NW,19.6,-,0.00,Snow,Light Snow,320,2012-12-31 15:02:00
10:10 AM,15.8,8.6,73,29.91,2.0,NW,19.6,-,0.00,Snow,Light Snow,320,2012-12-31 15:10:00
10:45 AM,14.0,10.4,86,29.94,0.8,WNW,20.7,-,0.00,Snow,Light Snow,300,2012-12-31 15:45:00
10:53 AM,12.9,9.0,84,30.01,0.5,WNW,18.4,28.8,0.00,Fog-Snow,Snow,300,2012-12-31 15:53:00
11:19 AM,12.2,8.6,85,29.95,0.2,WNW,24.2,-,0.00,Snow,Heavy Snow,300,2012-12-31 16:19:00
11:29 AM,12.2,8.6,85,29.96,0.8,WNW,17.3,-,0.00,Snow,Light Snow,300,2012-12-31 16:29:00
11:53 AM,10.9,7.0,84,30.04,0.8,NW,21.9,-,0.00,Snow,Light Snow,310,2012-12-31 16:53:00
12:00 PM,10.4,6.8,85,29.96,1.0,NW,18.4,26.5,0.00,Snow,Light Snow,310,2012-12-31 17:00:00
12:12 PM,10.4,6.8,85,29.97,0.8,NW,18.4,24.2,0.00,Snow,Light Snow,310,2012-12-31 17:12:00
12:30 PM,10.4,6.8,85,29.97,1.2,NW,18.4,24.2,0.00,Snow,Light Snow,310,2012-12-31 17:30:00
12:53 PM,10.9,5.0,77,30.04,1.5,NW,17.3,24.2,0.00,Snow,Light Snow,320,2012-12-31 17:53:00
1:08 PM,10.4,5.0,79,29.97,3.0,NNW,13.8,19.6,0.00,Snow,Light Snow,340,2012-12-31 18:08:00
1:17 PM,10.4,5.0,79,29.97,2.0,NNW,13.8,-,0.00,Snow,Light Snow,330,2012-12-31 18:17:00
1:24 PM,10.4,6.8,85,29.97,1.2,NW,17.3,-,0.00,Snow,Light Snow,310,2012-12-31 18:24:00
1:53 PM,10.9,5.0,77,30.03,2.0,NW,16.1,21.9,0.00,Snow,Light Snow,310,2012-12-31 18:53:00
2:07 PM,12.2,5.0,73,29.97,3.0,NW,11.5,-,0.00,Snow,Light Snow,320,2012-12-31 19:07:00
2:13 PM,10.4,6.8,85,29.97,1.8,NW,11.5,19.6,0.00,Snow,Light Snow,320,2012-12-31 19:13:00
2:53 PM,12.0,6.1,77,30.03,1.5,NW,17.3,23.0,0.00,Snow,Light Snow,320,2012-12-31 19:53:00
2:59 PM,12.2,3.2,67,29.97,3.0,NW,17.3,-,0.00,Snow,Light Snow,320,2012-12-31 19:59:00
3:24 PM,12.2,5.0,73,29.98,2.5,NNW,15.0,-,0.00,Snow,Light Snow,330,2012-12-31 20:24:00
3:32 PM,12.2,5.0,73,29.98,4.0,NW,13.8,-,0.00,Snow,Light Snow,320,2012-12-31 20:32:00
3:53 PM,12.0,5.0,73,30.05,3.0,NNW,12.7,-,0.00,Snow,Light Snow,330,2012-12-31 20:53:00
4:53 PM,12.0,5.0,73,30.07,8.0,NW,13.8,-,0.00,,Overcast,310,2012-12-31 21:53:00
5:53 PM,12.9,6.1,74,30.09,8.0,WNW,13.8,-,0.00,Snow,Light Snow,300,2012-12-31 22:53:00
6:53 PM,12.9,5.0,71,30.10,10.0,NW,11.5,-,0.00,,Overcast,310,2012-12-31 23:53:00
7:42 PM,12.2,6.8,79,30.04,1.8,NW,15.0,-,0.00,Snow,Light Snow,310,2013-01-01 00:42:00
7:53 PM,12.9,8.1,81,30.11,2.5,NNW,10.4,-,0.00,Snow,Light Snow,330,2013-01-01 00:53:00
7:56 PM,12.2,8.6,85,30.04,1.5,NW,12.7,-,0.00,Snow,Light Snow,320,2013-01-01 00:56:00
8:07 PM,12.2,8.6,85,30.04,0.8,NNW,10.4,-,0.00,Snow,Light Snow,330,2013-01-01 01:07:00
8:20 PM,12.2,8.6,85,30.05,1.2,NW,12.7,-,0.00,Snow,Light Snow,320,2013-01-01 01:20:00
8:48 PM,12.2,8.6,85,30.05,1.5,NW,12.7,-,N/A,Snow,Light Snow,320,2013-01-01 01:48:00
8:53 PM,12.0,7.0,80,30.12,1.8,NW,12.7,-,0.00,Snow,Light Snow,320,2013-01-01 01:53:00
9:03 PM,12.2,6.8,79,30.05,2.0,NNW,15.0,19.6,0.00,Snow,Light Snow,330,2013-01-01 02:03:00
9:12 PM,12.2,6.8,79,30.05,2.0,NNW,15.0,-,0.00,Snow,Light Snow,330,2013-01-01 02:12:00
9:19 PM,12.2,6.8,79,30.05,4.0,NNW,12.7,-,0.00,Snow,Light Snow,330,2013-01-01 02:19:00
9:53 PM,10.9,5.0,77,30.13,6.0,NW,8.1,-,0.00,Snow,Light Snow,320,2013-01-01 02:53:00
10:30 PM,12.2,6.8,79,30.05,1.8,NNW,9.2,-,0.00,Snow,Light Snow,330,2013-01-01 03:30:00
10:33 PM,12.2,6.8,79,30.05,3.0,NNW,15.0,18.4,0.00,Snow,Light Snow,330,2013-01-01 03:33:00
10:53 PM,10.9,7.0,84,30.13,2.0,NW,13.8,-,0.00,Snow,Light Snow,320,2013-01-01 03:53:00
11:07 PM,10.4,6.8,85,30.06,1.8,NNW,11.5,-,0.00,Snow,Light Snow,330,2013-01-01 04:07:00
11:25 PM,10.4,6.8,85,30.07,2.5,NNW,12.7,-,0.00,Snow,Light Snow,330,2013-01-01 04:25:00
11:53 PM,10.9,5.0,77,30.14,4.0,NNW,10.4,-,0.00,Snow,Light Snow,330,2013-01-01 04:53:00